TimeAKDT,TemperatureF,Dew PointF,Humidity,Sea Level PressureIn,VisibilityMPH,Wind Direction,Wind SpeedMPH,Gust SpeedMPH,PrecipitationIn,Events,Conditions,WindDirDegrees,DateUTC
12:53 AM,16.0,3.0,57,30.14,10.0,NNE,4.6,-,N/A,,Scattered Clouds,30,2013-05-03 08:53:00
1:53 AM,14.0,3.0,62,30.15,10.0,Calm,Calm,-,N/A,,Scattered Clouds,0,2013-05-03 09:53:00
2:53 AM,15.1,3.0,59,30.16,10.0,West,4.6,-,N/A,,Partly Cloudy,260,2013-05-03 10:53:00
3:53 AM,12.0,1.9,64,30.17,10.0,North,3.5,-,N/A,,Partly Cloudy,360,2013-05-03 11:53:00
4:53 AM,12.0,3.9,70,30.17,10.0,Calm,Calm,-,N/A,,Partly Cloudy,0,2013-05-03 12:53:00
5:53 AM,10.9,1.0,64,30.17,10.0,Calm,Calm,-,N/A,,Partly Cloudy,0,2013-05-03 13:53:00
6:53 AM,10.0,1.0,67,30.15,10.0,Calm,Calm,-,N/A,,Partly Cloudy,0,2013-05-03 14:53:00
7:53 AM,12.9,3.9,67,30.16,10.0,Calm,Calm,-,N/A,,Partly Cloudy,0,2013-05-03 15:53:00
8:53 AM,18.0,3.0,52,30.16,10.0,Calm,Calm,-,N/A,,Partly Cloudy,0,2013-05-03 16:53:00
9:53 AM,19.0,1.0,46,30.17,10.0,NW,3.5,-,N/A,,Partly Cloudy,310,2013-05-03 17:53:00
10:53 AM,19.9,3.0,48,30.17,10.0,Calm,Calm,-,N/A,,Partly Cloudy,0,2013-05-03 18:53:00
11:53 AM,21.0,7.0,55,30.18,10.0,Calm,Calm,-,N/A,,Partly Cloudy,0,2013-05-03 19:53:00
12:53 PM,23.0,9.0,55,30.19,10.0,Calm,Calm,-,N/A,,Partly Cloudy,0,2013-05-03 20:53:00
1:53 PM,24.1,12.9,62,30.19,10.0,WSW,4.6,-,N/A,,Clear,250,2013-05-03 21:53:00
2:53 PM,24.1,12.9,62,30.19,10.0,Calm,Calm,-,N/A,,Clear,0,2013-05-03 22:53:00
3:53 PM,24.1,14.0,65,30.19,10.0,SW,4.6,-,N/A,,Clear,230,2013-05-03 23:53:00
4:53 PM,25.0,15.1,66,30.19,10.0,WSW,5.8,-,N/A,,Scattered Clouds,240,2013-05-04 00:53:00
5:53 PM,25.0,16.0,69,30.17,10.0,West,5.8,-,N/A,,Scattered Clouds,270,2013-05-04 01:53:00
6:53 PM,26.1,16.0,66,30.17,10.0,West,6.9,-,N/A,,Scattered Clouds,270,2013-05-04 02:53:00
7:53 PM,25.0,16.0,69,30.17,10.0,West,8.1,-,N/A,,Scattered Clouds,270,2013-05-04 03:53:00
8:53 PM,25.0,17.1,72,30.17,10.0,West,6.9,-,N/A,,Scattered Clouds,260,2013-05-04 04:53:00
9:53 PM,25.0,16.0,69,30.16,10.0,West,3.5,-,N/A,,Scattered Clouds,270,2013-05-04 05:53:00
10:53 PM,19.9,15.1,81,30.14,10.0,Calm,Calm,-,N/A,,Scattered Clouds,0,2013-05-04 06:53:00
11:53 PM,18.0,12.9,81,30.16,10.0,Calm,Calm,-,N/A,,Scattered Clouds,0,2013-05-04 07:53:00